Location: Krasnoyarskiy
(51.1133°N, 71.6497°E)
Time: 21:46:43
(UTC+00:00)

ISS - Visible Passes

Search period start: 26 March 2023 00:00
Search period end: 05 April 2023 00:00
Orbit: 414 x 422 km, 51.6° (Epoch: 26 March)

Date Brightness Start Highest point End Pass type
(mag) Time Alt. Az. Time Alt. Az. Time Alt. Az.
26 Mar -3.8 14:39:07 10° W 14:42:29 84° N 14:44:49 18° E visible
26 Mar -1.9 16:15:57 10° W 16:17:45 26° W 16:17:45 26° W visible
27 Mar -3.6 15:27:54 10° W 15:31:12 56° SSW 15:31:39 50° SSE visible
28 Mar -3.7 14:39:48 10° W 14:43:09 73° SSW 14:45:32 18° ESE visible
28 Mar -1.5 16:16:55 10° W 16:18:28 18° WSW 16:18:28 18° WSW visible
29 Mar -2.5 15:28:35 10° W 15:31:36 31° SSW 15:32:19 28° S visible
30 Mar -2.9 14:40:20 10° W 14:43:31 43° SSW 14:46:11 14° SE visible
30 Mar -0.9 16:18:59 10° SW 16:19:06 10° SW 16:19:06 10° SW visible
31 Mar -1.4 15:29:32 10° WSW 15:31:38 16° SW 15:32:58 13° SSW visible
01 Apr -1.8 14:40:52 10° W 14:43:34 23° SW 14:46:14 10° SSE visible
03 Apr -0.9 14:42:15 10° WSW 14:43:13 11° SW 14:44:12 10° SSW visible
